User: anonymous   Login
Location: Unspecified
(0.0000°N, 0.0000°E)
Time: 17:25:24
(UTC+00:00)
Language:

YAOGAN 15 - Orbit

View from above orbital plane
View from above orbital plane
View from above satellite
View from above satellite

Ground track
Ground track

The orbit data is extracted from the following two-line orbital elements,

1 38354U 12029A   18292.41830793 -.00000038  00000-0  18714-4 0  9991
2 38354 100.4605  63.9034 0005881  77.5330 282.6448 13.15149722306854
Epoch (UTC): 19 October 2018 10:02:21
Eccentricity: 0.0005881
inclination: 100.4605°
perigee height: 1199 km
apogee height: 1208 km
right ascension of ascending node: 63.9034°
argument of perigee: 77.5330°
revolutions per day: 13.15149722
mean anomaly at epoch: 282.6448°
orbit number at epoch: 30685

The dashed part of the orbit path shows where the satellite is in the earth's shadow,  

DLR